time_stamp(utc),avg(mph),gust(mph),direction(deg),12m_air_temp(f),sonic_u(cm/s),sonic_v(cm/s),sonic_w(cm/s),pressure,2m_air_temp(f),pyranometer(W/m^2)
"2016-11-30 00:03:46+00",22.8,26.8,,59.1,-701,-767,9,1010.86,58.2,0
"2016-11-30 00:08:46+00",24.5,28.5,,59.2,-718,-866,26,1010.83,58.3,0
"2016-11-30 00:13:46+00",26.9,32.9,,59.6,-772,-959,13,1010.85,58.5,0
"2016-11-30 00:18:46+00",26.5,32.5,,59.5,-744,-945,11,1010.86,58.6,0
"2016-11-30 00:23:46+00",24.8,27.8,,59.2,-732,-872,18,1011.02,58.4,0
"2016-11-30 00:28:46+00",23.8,26.8,,59.2,-637,-867,14,1011.11,58.4,0
"2016-11-30 00:33:46+00",25.1,28.1,,59.4,-696,-889,9,1011.09,58.5,0
"2016-11-30 00:38:46+00",21.5,24.5,,59,-615,-766,13,1011.11,58.2,0
"2016-11-30 00:43:46+00",23.5,26.5,,58.9,-709,-796,1,1011.15,58.1,0
"2016-11-30 00:48:46+00",21.7,24.7,,58.6,-679,-706,8,1011.12,57.9,0
"2016-11-30 00:53:46+00",21.4,25.4,,58.5,-609,-764,1,1011.01,57.7,0
"2016-11-30 00:58:46+00",21.2,23.2,,58.4,-627,-737,5,1010.97,57.6,0
"2016-11-30 01:03:46+00",21.0,25.0,,58.5,-586,-755,4,1010.97,57.7,0
"2016-11-30 01:08:46+00",18.3,20.3,,58.2,-466,-686,17,1011.09,57.5,0
"2016-11-30 01:13:46+00",13.9,15.9,,57.9,-350,-528,2,1011.14,57.3,0
"2016-11-30 01:18:46+00",15.7,17.7,,57.9,-429,-570,7,1011.22,57.2,0
"2016-11-30 01:23:46+00",15.1,19.1,,57.7,-459,-511,11,1011.39,57,0
"2016-11-30 01:28:46+00",18.6,21.6,,57.5,-610,-527,-5,1011.56,56.8,0
"2016-11-30 01:33:46+00",17.9,20.9,,57.2,-590,-500,2,1011.5,56.5,0
"2016-11-30 01:38:46+00",16.9,18.9,,57,-540,-525,5,1011.52,56.3,0
"2016-11-30 01:43:46+00",17.3,21.3,,57.1,-547,-550,-3,1011.51,56.3,0
"2016-11-30 01:48:46+00",16.3,19.3,,57.2,-526,-495,25,1011.53,56.4,0
"2016-11-30 01:53:46+00",17.0,20.0,,56.9,-555,-505,3,1011.62,56.2,0
"2016-11-30 01:58:46+00",17.0,21.0,,56.8,-539,-550,12,1011.55,56.1,0
"2016-11-30 02:03:46+00",15.4,18.4,,56.9,-498,-468,10,1011.56,56.2,0
"2016-11-30 02:08:46+00",15.9,18.9,,56.6,-524,-453,11,1011.65,56,0
"2016-11-30 02:13:46+00",17.1,20.1,,56.6,-567,-501,12,1011.66,56,0
"2016-11-30 02:18:46+00",16.6,18.6,,56.3,-575,-454,16,1011.67,55.7,0
"2016-11-30 02:23:46+00",17.0,20.0,,56.3,-599,-440,16,1011.78,55.6,0
"2016-11-30 02:28:46+00",17.3,21.3,,56.3,-585,-486,24,1011.82,55.6,0
"2016-11-30 02:33:46+00",15.8,17.8,,55.9,-515,-484,14,1011.78,55.3,0
"2016-11-30 02:38:46+00",14.5,16.5,,55.8,-466,-447,16,1011.81,55.2,0
"2016-11-30 02:43:46+00",13.6,15.6,,55.6,-427,-439,19,1011.76,55.1,0
"2016-11-30 02:48:46+00",15.3,18.3,,55.6,-469,-508,6,1011.73,54.9,0
"2016-11-30 02:53:46+00",15.6,18.6,,55.5,-463,-543,10,1011.62,54.8,0
"2016-11-30 02:58:46+00",14.2,16.2,,55.4,-393,-515,10,1011.58,54.7,0
"2016-11-30 03:03:46+00",15.8,17.8,,55.6,-464,-542,4,1011.58,54.9,0
"2016-11-30 03:08:46+00",16.6,18.6,,55.7,-501,-556,4,1011.72,54.9,0
"2016-11-30 03:13:46+00",17.5,19.5,,56,-590,-490,10,1011.93,55.1,0
"2016-11-30 03:18:46+00",15.2,18.2,,56,-596,-352,19,1012.12,55.1,0
"2016-11-30 03:23:46+00",9.2,11.2,,55.3,-391,-42,14,1012.28,54.6,0
"2016-11-30 03:28:46+00",14.7,17.7,,56.1,-626,-291,21,1012.2,55.2,0
"2016-11-30 03:33:46+00",13.4,15.4,,55.5,-476,-345,22,1012.14,54.9,0
"2016-11-30 03:38:46+00",15.8,18.8,,55.5,-591,-394,22,1012.37,54.7,0
"2016-11-30 03:43:46+00",15.4,17.4,,55.6,-574,-372,14,1012.48,55,0
"2016-11-30 03:48:46+00",14.1,15.1,,55.3,-487,-371,11,1012.58,54.7,0
"2016-11-30 03:53:46+00",13.7,15.7,,55.2,-447,-380,6,1012.56,54.5,0
"2016-11-30 03:58:46+00",13.0,15.0,,55.3,-420,-385,5,1012.49,54.6,0
"2016-11-30 04:03:46+00",13.1,15.1,,55.5,-424,-398,-3,1012.6,54.8,0
"2016-11-30 04:08:46+00",12.4,14.4,,55.7,-400,-380,3,1012.56,55,0
"2016-11-30 04:13:46+00",11.7,12.7,,55.4,-386,-328,5,1012.61,54.8,0
"2016-11-30 04:18:46+00",11.9,12.9,,55.4,-356,-407,-4,1012.47,54.7,0
"2016-11-30 04:23:46+00",11.9,13.9,,55.5,-360,-407,3,1012.42,54.7,0
"2016-11-30 04:28:46+00",12.2,13.2,,55.4,-294,-462,-2,1012.26,54.6,0
"2016-11-30 04:33:46+00",12.6,15.6,,55.5,-329,-465,-1,1012.28,54.5,0
"2016-11-30 04:38:46+00",13.7,15.7,,55.5,-340,-515,-2,1012.22,54.5,0
"2016-11-30 04:43:46+00",12.7,14.7,,55.5,-268,-484,-6,1012.1,54.6,0
"2016-11-30 04:48:46+00",13.0,14.0,,55.7,-293,-494,0,1012.11,54.7,0
"2016-11-30 04:53:46+00",12.8,13.8,,55.7,-313,-484,-11,1012.13,54.8,0
"2016-11-30 04:58:46+00",12.7,13.7,,55.6,-324,-472,1,1012.25,54.7,0
"2016-11-30 05:03:46+00",12.5,14.5,,55.6,-303,-469,-7,1012.15,54.7,0
"2016-11-30 05:08:46+00",11.4,12.4,,55.8,-306,-420,4,1012.19,54.9,0
"2016-11-30 05:13:46+00",11.3,13.3,,56,-317,-413,6,1012.32,55.1,0
"2016-11-30 05:18:46+00",10.9,11.9,,56.2,-346,-341,11,1012.32,55.3,0
"2016-11-30 05:23:46+00",11.7,12.7,,56.4,-382,-339,3,1012.58,55.5,0
"2016-11-30 05:28:46+00",10.4,12.4,,56.3,-344,-288,8,1012.75,55.5,0
"2016-11-30 05:33:46+00",8.9,8.9,,55.8,-381,-152,15,1012.64,55.3,0
"2016-11-30 05:38:46+00",11.9,12.9,,55.7,-431,-297,17,1012.55,54.8,0
"2016-11-30 05:43:46+00",10.6,11.6,,55.4,-379,-269,14,1012.42,54.7,0
"2016-11-30 05:48:46+00",11.6,12.6,,55.7,-425,-274,14,1012.58,54.7,0
"2016-11-30 05:53:46+00",10.4,11.4,,55.6,-364,-271,13,1012.59,54.7,0
"2016-11-30 05:58:46+00",10.1,11.1,,55.6,-342,-265,3,1012.63,54.8,0
"2016-11-30 06:03:46+00",9.6,10.6,,55.7,-323,-255,10,1012.6,54.9,0
"2016-11-30 06:08:46+00",10.7,11.7,,55.6,-344,-325,9,1012.7,55,0
"2016-11-30 06:13:46+00",9.3,10.3,,55.7,-298,-274,3,1012.56,54.9,0
"2016-11-30 06:18:46+00",9.4,10.4,,55.7,-307,-264,5,1012.63,55.1,0
"2016-11-30 06:23:46+00",9.8,10.8,,55.7,-310,-295,-3,1012.51,55,0
"2016-11-30 06:28:46+00",8.6,9.6,,55.5,-277,-254,8,1012.63,54.9,0
"2016-11-30 06:33:46+00",8.3,9.3,,55.5,-276,-226,4,1012.71,54.9,0
"2016-11-30 06:38:46+00",7.4,8.4,,55.5,-231,-230,2,1012.75,54.8,0
"2016-11-30 06:43:46+00",7.4,8.4,,55.6,-223,-254,-1,1012.84,54.8,0
"2016-11-30 06:48:46+00",7.2,8.2,,55.6,-192,-262,0,1012.69,55,0
"2016-11-30 06:53:46+00",5.9,6.9,,55.7,-171,-202,4,1012.77,55.1,0
"2016-11-30 06:58:46+00",5.6,6.6,,55.7,-158,-189,-1,1012.73,55.1,0
"2016-11-30 07:03:46+00",5.1,6.1,,55.7,-158,-162,1,1012.82,55.1,0
"2016-11-30 07:08:46+00",5.7,5.7,,55.8,-131,-212,-4,1012.82,55.2,0
"2016-11-30 07:13:46+00",5.3,5.3,,55.8,-110,-198,-1,1012.96,55.2,0
"2016-11-30 07:18:46+00",5.3,6.3,,55.7,-137,-186,1,1013.07,55.2,0
"2016-11-30 07:23:46+00",4.9,5.9,,55.5,-52,-195,-6,1013.01,55.1,0
"2016-11-30 07:28:46+00",5.6,6.6,,55.8,12,-230,-11,1012.92,55.3,0
"2016-11-30 07:33:46+00",5.4,6.4,,55.4,20,-224,-13,1013.06,54.8,0
"2016-11-30 07:38:46+00",6.1,6.1,,56,17,-258,-13,1013.08,54.1,0
"2016-11-30 07:43:46+00",5.8,6.8,,54.5,31,-238,-16,1013.09,53.5,0
"2016-11-30 07:48:46+00",4.9,4.9,,56.3,-16,-201,-1,1013.09,53.1,0
"2016-11-30 07:53:46+00",5.3,5.3,,56.6,-16,-213,-4,1013.07,53.4,0
"2016-11-30 07:58:46+00",5.0,6.0,,56.2,-32,-207,3,1013.09,53.5,0
"2016-11-30 08:03:46+00",5.1,6.1,,55.9,-21,-205,-2,1013.03,54.1,0
"2016-11-30 08:08:46+00",6.4,7.4,,55.7,-19,-267,-4,1012.95,54.2,0
"2016-11-30 08:13:46+00",5.9,6.9,,55.9,-45,-239,-4,1012.94,54.4,0
"2016-11-30 08:18:46+00",5.0,5.0,,55.9,-77,-195,-3,1013.11,54.7,0
"2016-11-30 08:23:46+00",5.3,6.3,,55.8,-40,-216,-4,1013.01,54.9,0
"2016-11-30 08:28:46+00",5.8,6.8,,55.9,3,-236,-6,1013,54.6,0
"2016-11-30 08:33:46+00",4.7,4.7,,55.6,6,-190,-5,1012.85,54,0
"2016-11-30 08:38:46+00",4.8,4.8,,56.4,-33,-197,-1,1012.89,53.5,0
"2016-11-30 08:43:46+00",4.8,4.8,,56.2,-29,-195,-3,1012.94,53.3,0
"2016-11-30 08:48:46+00",4.4,4.4,,56.4,-44,-174,-1,1012.99,53.3,0
"2016-11-30 08:53:46+00",3.1,3.1,,56.4,-71,-112,-2,1013.04,53.2,0
"2016-11-30 08:58:46+00",3.8,3.8,,56,-61,-143,-2,1013.24,53.2,0
"2016-11-30 09:03:46+00",3.6,3.6,,56.5,-86,-132,-1,1013.27,53.3,0
"2016-11-30 09:08:46+00",3.5,3.5,,56.8,-118,-82,-2,1013.21,53.4,0
"2016-11-30 09:13:46+00",1.4,2.4,,56.5,-36,-37,2,1013.15,53.5,0
"2016-11-30 09:18:46+00",1.7,2.7,,55.1,9,57,-3,1013.2,53.5,0
"2016-11-30 09:23:46+00",1.5,2.5,,55.3,0,60,4,1013.08,53.7,0
"2016-11-30 09:28:46+00",2.1,2.1,,55.8,-73,34,0,1013.04,54,0
"2016-11-30 09:33:46+00",3.3,4.3,,55.9,-41,122,2,1013.13,54.4,0
"2016-11-30 09:38:46+00",1.1,2.1,,56.2,-37,16,-1,1013.16,54.6,0
"2016-11-30 09:43:46+00",2.3,3.3,,56.4,-3,84,3,1013,54.7,0
"2016-11-30 09:48:46+00",2.7,2.7,,56.5,74,67,0,1012.81,54.7,0
"2016-11-30 09:53:46+00",1.8,1.8,,56.9,5,66,1,1013.09,54.6,0
"2016-11-30 09:58:46+00",1.8,1.8,,57.3,-23,57,0,1012.98,54.6,0
"2016-11-30 10:03:46+00",2.1,2.1,,58.4,66,42,2,1012.66,54.7,0
"2016-11-30 10:08:46+00",3.2,4.2,,58.5,64,106,0,1012.8,54.5,0
"2016-11-30 10:13:46+00",3.4,3.4,,58.7,113,76,4,1012.79,54.5,0
"2016-11-30 10:18:46+00",3.9,3.9,,59,110,99,6,1012.8,54.5,0
"2016-11-30 10:23:46+00",4.2,5.2,,55.6,94,137,2,1012.73,54.4,0
"2016-11-30 10:28:46+00",5.1,6.1,,55.7,111,180,3,1012.87,54.2,0
"2016-11-30 10:33:46+00",5.3,6.3,,55.3,145,142,0,1012.84,54,0
"2016-11-30 10:38:46+00",6.9,7.9,,54.1,205,192,5,1012.7,53.7,0
"2016-11-30 10:43:46+00",6.0,7.0,,53.9,158,170,9,1012.59,53.4,0
"2016-11-30 10:48:46+00",7.5,7.5,,55.7,194,210,3,1012.59,53.5,0
"2016-11-30 10:53:46+00",7.3,8.3,,55.1,184,226,4,1012.61,53.8,0
"2016-11-30 10:58:46+00",6.7,7.7,,54,221,178,16,1012.43,53.7,0
"2016-11-30 11:03:46+00",5.5,6.5,,53.8,222,89,15,1012.48,53.4,0
"2016-11-30 11:08:46+00",5.6,6.6,,53.8,219,97,12,1012.38,53.3,0
"2016-11-30 11:13:46+00",5.9,6.9,,53.6,217,125,7,1012.53,53.3,0
"2016-11-30 11:18:46+00",6.4,6.4,,53.3,225,153,11,1012.52,53.2,0
"2016-11-30 11:23:46+00",6.9,7.9,,53.3,259,146,14,1012.49,53,0
"2016-11-30 11:28:46+00",6.3,7.3,,53.4,215,155,8,1012.59,52.9,0
"2016-11-30 11:33:46+00",7.0,7.0,,53.4,240,174,22,1012.68,52.9,0
"2016-11-30 11:38:46+00",6.5,7.5,,53.7,146,228,0,1012.62,52.9,0
"2016-11-30 11:43:46+00",7.7,7.7,,54.2,214,217,10,1012.5,53.3,0
"2016-11-30 11:48:46+00",7.7,8.7,,54.7,278,181,20,1012.33,53.5,0
"2016-11-30 11:53:46+00",7.3,8.3,,55.2,288,120,10,1012.25,53.8,0
"2016-11-30 11:58:46+00",6.7,7.7,,55.4,277,83,17,1012.28,54.1,0
"2016-11-30 12:03:46+00",7.6,8.6,,55.4,325,91,19,1012.16,54.3,0
"2016-11-30 12:08:46+00",6.1,7.1,,55.5,257,45,16,1012.32,54.5,0
"2016-11-30 12:13:46+00",5.5,6.5,,55.4,239,-9,11,1012.5,54.6,0
"2016-11-30 12:18:46+00",5.4,6.4,,55.1,206,-90,4,1012.76,54.7,0
"2016-11-30 12:23:46+00",4.7,4.7,,54.3,146,-129,3,1013.06,54.1,0
"2016-11-30 12:28:46+00",4.5,5.5,,53.6,148,-114,3,1013.34,53.1,0
"2016-11-30 12:33:46+00",4.3,4.3,,53.6,126,-129,2,1013.44,52.8,0
"2016-11-30 12:38:46+00",5.9,6.9,,53.2,10,-243,0,1013.65,52.9,0
"2016-11-30 12:43:46+00",10.6,12.6,,52.5,-86,-443,-13,1013.99,52.2,0
"2016-11-30 12:48:46+00",9.0,10.0,,53,-128,-351,1,1013.95,52.6,0
"2016-11-30 12:53:46+00",9.3,11.3,,53.7,-116,-366,-12,1013.95,53.2,0
"2016-11-30 12:58:46+00",5.8,7.8,,54,-14,-231,0,1013.51,53.7,0
"2016-11-30 13:03:46+00",5.8,6.8,,54.4,181,-169,5,1012.64,54,0
"2016-11-30 13:08:46+00",6.5,7.5,,54.2,175,-221,-5,1012.51,53.9,0
"2016-11-30 13:13:46+00",7.9,8.9,,53.8,134,-313,-3,1012.57,53.6,0
"2016-11-30 13:18:46+00",7.2,8.2,,53.3,114,-284,-10,1012.71,53.2,0
"2016-11-30 13:23:46+00",7.6,8.6,,53.3,237,-229,-1,1012.32,53.1,0
"2016-11-30 13:28:46+00",7.8,8.8,,53.4,246,-236,-2,1012.21,53.1,0.5
"2016-11-30 13:33:46+00",5.7,6.7,,53.1,199,-131,2,1012.13,53.2,0
"2016-11-30 13:38:46+00",7.9,8.9,,53,284,-186,6,1011.89,52.9,0.4
"2016-11-30 13:43:46+00",9.5,10.5,,53.2,342,-224,1,1011.6,52.9,1
"2016-11-30 13:48:46+00",8.9,9.9,,53.1,279,-260,-1,1011.82,52.8,0
"2016-11-30 13:53:46+00",7.6,8.6,,53.4,263,-202,3,1011.64,53,0
"2016-11-30 13:58:46+00",7.6,8.6,,53.3,275,-172,5,1011.43,53,0.5
"2016-11-30 14:03:46+00",7.1,8.1,,53.5,239,-207,6,1011.5,53.2,0.7
"2016-11-30 14:08:46+00",9.8,10.8,,53.7,328,-269,5,1011.23,53.4,3.4
"2016-11-30 14:13:46+00",8.9,9.9,,53.8,294,-250,0,1011.26,53.5,11.3
"2016-11-30 14:18:46+00",7.3,8.3,,54.3,219,-229,10,1011.54,54,2
"2016-11-30 14:23:46+00",6.5,7.5,,54,186,-215,-2,1011.58,54,0
"2016-11-30 14:28:46+00",7.1,8.1,,54,260,-170,0,1011.18,54,19.4
"2016-11-30 14:33:46+00",8.0,8.0,,53.6,290,-193,0,1011.16,53.9,31.5
"2016-11-30 14:38:46+00",9.1,10.1,,53.7,299,-249,2,1011.06,53.8,28
"2016-11-30 14:43:46+00",7.5,8.5,,54.1,249,-216,-3,1011.16,54,20.7
"2016-11-30 14:48:46+00",6.2,7.2,,54.5,192,-186,5,1011.12,54.4,16.5
"2016-11-30 14:53:46+00",7.7,8.7,,54.7,285,-168,-6,1010.69,54.7,25.3
"2016-11-30 14:58:46+00",6.8,7.8,,54.2,275,-80,3,1010.53,54.3,44.2
"2016-11-30 15:03:46+00",4.5,5.5,,54.4,165,-89,-2,1010.89,54.7,37.4
"2016-11-30 15:08:46+00",5.2,6.2,,54.4,224,-20,14,1010.68,54.7,36
"2016-11-30 15:13:46+00",4.9,5.9,,54.2,203,45,19,1010.58,54.7,33.5
"2016-11-30 15:18:46+00",4.5,5.5,,54.1,184,-29,8,1010.75,54.6,24.6
"2016-11-30 15:23:46+00",4.7,5.7,,54.3,170,-103,-4,1010.97,54.5,0
"2016-11-30 15:28:46+00",4.4,5.4,,54.2,142,-113,6,1011.02,54.4,0
"2016-11-30 15:33:46+00",6.4,7.4,,54,212,-168,-2,1010.74,54.3,0.7
"2016-11-30 15:38:46+00",6.9,7.9,,53.9,245,-176,-4,1010.64,54.1,1.3
"2016-11-30 15:43:46+00",6.1,8.1,,53.6,202,-153,5,1010.46,53.9,1.2
"2016-11-30 15:48:46+00",9.7,10.7,,53.9,212,-367,-18,1010.68,53.9,0
"2016-11-30 15:53:46+00",9.5,10.5,,53.8,175,-366,-5,1010.52,53.8,0
"2016-11-30 15:58:46+00",7.5,8.5,,53.6,103,-292,5,1010.77,53.6,0
"2016-11-30 16:03:46+00",5.9,7.9,,53.5,164,-191,-1,1010.35,53.5,0
"2016-11-30 16:08:46+00",10.6,12.6,,53.6,-458,157,46,1011.58,53.4,0
"2016-11-30 16:13:46+00",4.1,5.1,,53.1,105,-136,-8,1010.34,53.1,0.4
"2016-11-30 16:18:46+00",2.9,3.9,,53.4,-112,43,17,1010.68,53.1,0
"2016-11-30 16:23:46+00",3.7,4.7,,53.3,-139,60,11,1010.69,53,0
"2016-11-30 16:28:46+00",3.6,4.6,,53.3,-123,-85,4,1010.78,52.9,0
"2016-11-30 16:33:46+00",6.2,7.2,,54.2,79,-250,5,1010.42,53.7,0
"2016-11-30 16:38:46+00",6.0,7.0,,54.6,125,-224,-5,1010.29,54.2,0
"2016-11-30 16:43:46+00",6.5,7.5,,54.6,150,-235,-6,1009.89,54.4,0
"2016-11-30 16:48:46+00",4.4,5.4,,54.5,59,-176,-1,1010.06,54.4,0
"2016-11-30 16:53:46+00",3.0,3.0,,54.5,53,-105,-3,1009.93,54.5,0
"2016-11-30 16:58:46+00",5.0,6.0,,54.5,169,-119,-3,1009.65,54.5,0
"2016-11-30 17:03:46+00",7.7,9.7,,54.5,266,-198,-2,1009.38,54.5,0
"2016-11-30 17:08:46+00",10.2,11.2,,54.4,323,-307,5,1009.11,54.4,2.9
"2016-11-30 17:13:46+00",9.3,10.3,,54.4,295,-280,-2,1008.93,54.3,4.3
"2016-11-30 17:18:46+00",10.1,12.1,,54.7,337,-280,-3,1008.87,54.6,0
"2016-11-30 17:23:46+00",10.2,12.2,,54.3,310,-316,-7,1008.5,54.2,0
"2016-11-30 17:28:46+00",11.6,12.6,,54.4,325,-397,-6,1008.8,54.2,0
"2016-11-30 17:33:46+00",9.8,10.8,,54.2,268,-329,-2,1008.78,54,0
"2016-11-30 17:38:46+00",9.4,11.4,,54.3,295,-279,-2,1008.61,54.1,0.9
"2016-11-30 17:43:46+00",9.0,11.0,,54.4,311,-247,-3,1008.44,54.3,18.8
"2016-11-30 17:48:46+00",7.9,8.9,,54.5,235,-249,2,1008.48,54.5,1.2
"2016-11-30 17:53:46+00",8.0,10.0,,54.5,242,-239,-6,1008.48,54.4,0
"2016-11-30 17:58:46+00",6.6,7.6,,54.6,180,-217,0,1008.47,54.5,0
"2016-11-30 18:03:46+00",6.4,7.4,,54.6,177,-213,-2,1008.3,54.5,0
"2016-11-30 18:08:46+00",5.6,6.6,,54.5,138,-202,-6,1008.44,54.4,0.3
"2016-11-30 18:13:46+00",4.8,6.8,,54.6,74,-189,7,1008.29,54.5,37.5
"2016-11-30 18:18:46+00",6.2,7.2,,55,153,-214,-4,1008.19,55,2.2
"2016-11-30 18:23:46+00",1.9,2.9,,55.1,-12,48,34,1008.27,55.1,0
"2016-11-30 18:28:46+00",4.6,5.6,,55.2,-53,175,2,1008.02,55.2,0
"2016-11-30 18:33:46+00",4.6,5.6,,55,185,-17,42,1007.77,55.1,0.3
"2016-11-30 18:38:46+00",1.7,2.7,,55,31,-59,10,1007.88,55,7.8
"2016-11-30 18:43:46+00",5.5,6.5,,55.1,186,-137,0,1007.28,55.3,54.6
"2016-11-30 18:48:46+00",2.7,3.7,,55.3,63,-86,2,1007.5,55.7,28.3
"2016-11-30 18:53:46+00",5.6,6.6,,55.6,112,-206,-2,1007.41,55.8,19.8
"2016-11-30 18:58:46+00",5.6,6.6,,55.5,49,-228,-9,1007.53,55.8,39
"2016-11-30 19:03:46+00",4.7,5.7,,55.5,42,-190,-9,1007.64,55.7,14.4
"2016-11-30 19:08:46+00",4.9,5.9,,55.6,24,-197,0,1007.47,55.8,8.6
"2016-11-30 19:13:46+00",7.4,10.4,,55.8,75,-306,-17,1007.36,55.8,0.6
"2016-11-30 19:18:46+00",6.2,8.2,,55.7,55,-254,-6,1007.33,55.7,2.9
"2016-11-30 19:23:46+00",5.0,6.0,,55.6,11,-200,-6,1007.2,55.8,21.6
"2016-11-30 19:28:46+00",4.3,6.3,,56,-76,-157,15,1007.34,55.9,8.1
"2016-11-30 19:33:46+00",8.4,10.4,,56.9,-70,-344,3,1007.25,56.8,3.8
"2016-11-30 19:38:46+00",8.6,11.6,,57,-85,-349,-6,1007.24,56.9,0.3
"2016-11-30 19:43:46+00",9.3,12.3,,57.2,-126,-372,5,1007.27,57.1,0.1
"2016-11-30 19:48:46+00",7.4,8.4,,57.2,-136,-290,18,1007.35,57.1,0
"2016-11-30 19:53:46+00",10.7,12.7,,57,-207,-409,6,1007.5,56.9,0
"2016-11-30 19:58:46+00",12.1,14.1,,56.9,-319,-430,-3,1007.69,56.7,0
"2016-11-30 20:03:46+00",11.7,14.7,,56.7,-300,-429,1,1007.68,56.5,0
"2016-11-30 20:08:46+00",11.5,13.5,,56.5,-208,-440,11,1007.41,56.3,0
"2016-11-30 20:13:46+00",10.2,12.2,,56.5,-176,-392,2,1007.22,56.3,0
"2016-11-30 20:18:46+00",10.0,12.0,,56.4,-132,-406,1,1007.2,56.3,0
"2016-11-30 20:23:46+00",11.6,13.6,,56.5,-144,-473,-4,1007.3,56.4,0
"2016-11-30 20:28:46+00",10.1,12.1,,56.5,-150,-398,1,1007.44,56.3,0
"2016-11-30 20:33:46+00",11.9,14.9,,56.5,-191,-470,-9,1007.29,56.3,0
"2016-11-30 20:38:46+00",11.9,14.9,,56.5,-193,-466,-5,1007.37,56.3,0
"2016-11-30 20:43:46+00",11.3,14.3,,56.5,-204,-434,3,1007.23,56.3,0
"2016-11-30 20:48:46+00",10.7,11.7,,56.4,-238,-393,5,1007.34,56.2,0
"2016-11-30 20:53:46+00",11.5,13.5,,56.3,-256,-419,5,1007.38,56,0
"2016-11-30 20:58:46+00",8.3,10.3,,56.1,-160,-313,-1,1007.08,55.8,0
"2016-11-30 21:03:46+00",10.1,12.1,,56.2,-176,-389,-2,1006.97,55.8,0
"2016-11-30 21:08:46+00",9.4,12.4,,56.2,-190,-356,5,1007.09,55.9,0
"2016-11-30 21:13:46+00",11.3,12.3,,56.4,-199,-440,-2,1007.28,56,0
"2016-11-30 21:18:46+00",10.9,13.9,,56.4,-163,-428,3,1007.17,56.1,0
"2016-11-30 21:23:46+00",11.7,13.7,,56.5,-214,-436,-4,1007.1,56.2,0
"2016-11-30 21:28:46+00",10.3,13.3,,56.5,-182,-401,8,1006.95,56.1,0
"2016-11-30 21:33:46+00",11.5,13.5,,56.7,-215,-441,5,1006.74,56.3,0
"2016-11-30 21:38:46+00",12.7,14.7,,56.7,-193,-492,-5,1006.59,56.3,0
"2016-11-30 21:43:46+00",12.1,14.1,,56.9,-184,-469,-9,1006.37,56.5,0
"2016-11-30 21:48:46+00",12.8,14.8,,57.1,-156,-507,5,1006.31,56.7,0
"2016-11-30 21:53:46+00",12.6,14.6,,56.8,-138,-512,14,1006.5,56.6,0
"2016-11-30 21:58:46+00",12.7,15.7,,56.8,-137,-509,6,1006.56,56.5,0
"2016-11-30 22:03:46+00",14.0,17.0,,56.8,-209,-559,0,1006.45,56.5,0
"2016-11-30 22:08:46+00",12.6,14.6,,56.9,-167,-507,12,1006.36,56.6,0
"2016-11-30 22:13:46+00",14.4,17.4,,56.7,-193,-581,-20,1006.44,56.4,0
"2016-11-30 22:18:46+00",13.8,16.8,,56.6,-196,-554,-6,1006.51,56.3,0
"2016-11-30 22:23:46+00",11.9,15.9,,56.4,-109,-493,2,1006.23,56.2,0
"2016-11-30 22:28:46+00",12.0,17.0,,56.3,-112,-495,2,1006.04,56.1,0
"2016-11-30 22:33:46+00",15.7,16.7,,56.3,-278,-602,-8,1006.22,56,0
"2016-11-30 22:38:46+00",14.4,17.4,,56.2,-237,-568,-8,1006.25,55.9,0
"2016-11-30 22:43:46+00",11.3,14.3,,56.2,-129,-461,-4,1006.26,55.9,0
"2016-11-30 22:48:46+00",13.2,15.2,,56.2,-219,-512,0,1006.52,55.9,0
"2016-11-30 22:53:46+00",13.6,16.6,,56.3,-231,-520,1,1006.45,55.9,0
"2016-11-30 22:58:46+00",12.1,15.1,,56.4,-186,-472,-2,1006.38,56,0
"2016-11-30 23:03:46+00",13.3,15.3,,56.8,-237,-500,2,1006.32,56.2,0
"2016-11-30 23:08:46+00",12.6,14.6,,57,-223,-480,4,1006.2,56.5,0
"2016-11-30 23:13:46+00",12.9,13.9,,57.2,-218,-491,2,1006.02,56.7,0
"2016-11-30 23:18:46+00",13.7,16.7,,57.2,-238,-525,1,1006.01,56.7,0
"2016-11-30 23:23:46+00",13.1,15.1,,57.3,-208,-505,-5,1005.91,56.7,0
"2016-11-30 23:28:46+00",14.0,16.0,,57.4,-244,-531,5,1005.98,56.8,0
"2016-11-30 23:33:46+00",13.2,16.2,,57.3,-283,-486,0,1005.98,56.7,0
"2016-11-30 23:38:46+00",13.6,15.6,,57.3,-240,-513,-2,1005.77,56.7,0
"2016-11-30 23:43:46+00",13.7,15.7,,57.4,-269,-510,4,1005.56,56.8,0
"2016-11-30 23:48:46+00",14.5,16.5,,57.2,-276,-540,3,1005.47,56.7,0
"2016-11-30 23:53:46+00",15.2,17.2,,57.1,-260,-574,-5,1005.34,56.6,0
"2016-11-30 23:58:46+00",15.3,18.3,,57.1,-259,-586,6,1005.34,56.6,0
